QPF
0.04 0.08 0.06 0.03 0.04 0.06 0.06 0.07 0.05 0.02 0.02 0.05 0.06 0.03 0.01 0.01 0.01 0.01 0.01 0.02 0.02 0.00 0.00 0.01 0.04 0.06 0.07 0.06 0.05 0.05 0.07 0.07 0.06 0.06 0.05 0.04 0.03 0.01 0.01 0.00 0.00 0.00 0.00 0.00
0.03 0.06 0.04 0.03 0.03 0.04 0.06 0.08 0.06 0.03 0.02 0.05 0.04 0.02 0.01 0.01 0.02 0.02 0.01 0.03 0.03 0.01 0.00 0.01 0.02 0.05 0.07 0.06 0.05 0.05 0.05 0.06 0.06 0.05 0.04 0.03 0.03 0.02 0.01 0.01 0.00 0.00 0.00 0.00
0.03 0.03 0.03 0.04 0.05 0.07 0.06 0.06 0.05 0.04 0.04 0.05 0.06 0.03 0.01 0.01 0.01 0.02 0.01 0.02 0.03 0.02 0.01 0.01 0.01 0.03 0.05 0.06 0.05 0.04 0.04 0.04 0.05 0.06 0.05 0.04 0.04 0.05 0.03 0.01 0.00 0.00 0.00 0.00
0.02 0.02 0.03 0.03 0.03 0.05 0.06 0.04 0.04 0.04 0.07 0.07 0.07 0.07 0.01 0.00 0.00 0.01 0.01 0.01 0.01 0.02 0.01 0.01 0.01 0.02 0.02 0.03 0.04 0.05 0.04 0.04 0.04 0.06 0.05 0.04 0.04 0.03 0.03 0.01 0.00 0.00 0.00 0.00
0.01 0.01 0.04 0.03 0.02 0.03 0.04 0.04 0.05 0.06 0.08 0.10 0.08 0.08 0.02 0.00 0.00 0.00 0.00 0.00 0.00 0.01 0.01 0.01 0.01 0.02 0.02 0.02 0.03 0.04 0.06 0.05 0.05 0.05 0.05 0.04 0.04 0.03 0.02 0.02 0.01 0.00 0.00 0.00
0.01 0.01 0.03 0.03 0.01 0.02 0.03 0.05 0.06 0.08 0.13 0.13 0.05 0.06 0.02 0.01 0.01 0.01 0.00 0.00 0.00 0.00 0.01 0.01 0.01 0.01 0.02 0.03 0.03 0.03 0.05 0.05 0.04 0.04 0.05 0.04 0.04 0.04 0.02 0.02 0.02 0.01 0.00 0.00
0.01 0.01 0.03 0.04 0.02 0.02 0.04 0.10 0.11 0.11 0.12 0.06 0.01 0.02 0.02 0.01 0.01 0.01 0.00 0.00 0.00 0.00 0.00 0.01 0.00 0.01 0.01 0.02 0.03 0.03 0.04 0.04 0.04 0.04 0.04 0.05 0.05 0.04 0.03 0.02 0.01 0.01 0.00 0.00
0.01 0.01 0.01 0.03 0.05 0.04 0.05 0.09 0.11 0.10 0.07 0.02 0.01 0.02 0.02 0.01 0.01 0.01 0.01 0.00 0.00 0.00 0.00 0.01 0.00 0.00 0.01 0.01 0.02 0.02 0.03 0.04 0.04 0.03 0.04 0.05 0.06 0.06 0.04 0.03 0.02 0.01 0.00 0.00
0.03 0.01 0.01 0.01 0.03 0.05 0.06 0.06 0.06 0.11 0.08 0.05 0.03 0.03 0.02 0.01 0.01 0.01 0.01 0.01 0.01 0.00 0.00 0.00 0.00 0.00 0.00 0.01 0.02 0.01 0.02 0.03 0.04 0.04 0.03 0.04 0.06 0.06 0.06 0.04 0.02 0.01 0.00 0.00
0.02 0.02 0.01 0.01 0.02 0.03 0.06 0.08 0.07 0.09 0.08 0.06 0.04 0.03 0.03 0.02 0.02 0.01 0.01 0.02 0.01 0.01 0.01 0.00 0.01 0.00 0.00 0.00 0.01 0.01 0.01 0.02 0.03 0.03 0.03 0.03 0.04 0.05 0.06 0.06 0.03 0.02 0.01 0.00
0.02 0.03 0.01 0.01 0.02 0.03 0.05 0.07 0.09 0.08 0.07 0.08 0.07 0.07 0.08 0.05 0.03 0.02 0.01 0.01 0.02 0.01 0.01 0.01 0.01 0.01 0.00 0.00 0.01 0.02 0.02 0.02 0.03 0.02 0.03 0.04 0.03 0.04 0.06 0.06 0.05 0.03 0.02 0.01
0.01 0.02 0.01 0.00 0.01 0.02 0.04 0.06 0.08 0.10 0.06 0.05 0.06 0.08 0.08 0.05 0.03 0.02 0.02 0.01 0.01 0.01 0.01 0.01 0.01 0.01 0.00 0.00 0.00 0.01 0.03 0.03 0.02 0.02 0.02 0.02 0.03 0.04 0.05 0.05 0.05 0.04 0.03 0.02
0.02 0.04 0.02 0.01 0.01 0.02 0.02 0.03 0.05 0.07 0.06 0.06 0.06 0.06 0.06 0.04 0.02 0.02 0.02 0.02 0.01 0.01 0.01 0.01 0.01 0.01 0.00 0.00 0.00 0.01 0.02 0.02 0.02 0.03 0.03 0.02 0.03 0.03 0.04 0.04 0.04 0.05 0.04 0.03
0.04 0.04 0.02 0.01 0.01 0.01 0.01 0.01 0.02 0.05 0.05 0.05 0.06 0.05 0.04 0.04 0.03 0.02 0.02 0.02 0.01 0.01 0.01 0.01 0.01 0.02 0.01 0.00 0.00 0.00 0.01 0.02 0.03 0.03 0.05 0.04 0.04 0.03 0.02 0.03 0.03 0.04 0.04 0.03
0.02 0.02 0.00 0.00 0.01 0.01 0.01 0.01 0.01 0.02 0.03 0.04 0.04 0.03 0.03 0.04 0.05 0.04 0.03 0.02 0.02 0.02 0.01 0.01 0.01 0.02 0.02 0.01 0.00 0.00 0.00 0.01 0.02 0.03 0.04 0.05 0.06 0.06 0.04 0.03 0.03 0.03 0.04 0.04
0.01 0.02 0.01 0.00 0.00 0.01 0.01 0.02 0.02 0.02 0.02 0.03 0.02 0.02 0.02 0.02 0.03 0.03 0.03 0.02 0.02 0.02 0.02 0.02 0.01 0.02 0.02 0.02 0.01 0.01 0.00 0.00 0.01 0.02 0.03 0.04 0.06 0.08 0.08 0.07 0.06 0.05 0.04 0.04
0.01 0.02 0.02 0.01 0.00 0.02 0.03 0.03 0.04 0.03 0.03 0.03 0.03 0.03 0.02 0.02 0.02 0.03 0.03 0.03 0.03 0.02 0.02 0.03 0.02 0.02 0.02 0.02 0.02 0.01 0.01 0.00 0.01 0.02 0.03 0.04 0.04 0.06 0.07 0.07 0.08 0.07 0.06 0.05
0.02 0.02 0.03 0.02 0.01 0.02 0.03 0.02 0.03 0.04 0.03 0.03 0.04 0.04 0.03 0.02 0.02 0.02 0.02 0.02 0.03 0.02 0.02 0.02 0.02 0.02 0.02 0.02 0.02 0.01 0.01 0.01 0.01 0.01 0.02 0.02 0.04 0.04 0.05 0.06 0.05 0.05 0.06 0.06
0.01 0.02 0.03 0.03 0.02 0.01 0.02 0.01 0.03 0.04 0.04 0.03 0.03 0.02 0.02 0.02 0.02 0.02 0.01 0.01 0.02 0.02 0.02 0.02 0.02 0.02 0.02 0.02 0.02 0.01 0.01 0.01 0.01 0.01 0.01 0.01 0.02 0.03 0.03 0.03 0.04 0.04 0.04 0.04
0.01 0.02 0.03 0.03 0.02 0.01 0.01 0.01 0.01 0.04 0.04 0.02 0.02 0.02 0.02 0.02 0.02 0.02 0.01 0.01 0.01 0.01 0.02 0.02 0.02 0.02 0.02 0.02 0.02 0.01 0.01 0.01 0.01 0.01 0.00 0.00 0.01 0.02 0.02 0.02 0.03 0.03 0.03 0.03
0.01 0.02 0.02 0.02 0.02 0.01 0.01 0.00 0.01 0.03 0.03 0.01 0.01 0.02 0.02 0.02 0.02 0.02 0.01 0.02 0.01 0.01 0.01 0.01 0.02 0.02 0.02 0.02 0.02 0.01 0.01 0.01 0.01 0.01 0.00 0.00 0.00 0.00 0.01 0.01 0.02 0.02 0.02 0.02
0.00 0.01 0.01 0.01 0.01 0.01 0.00 0.00 0.01 0.02 0.01 0.01 0.01 0.01 0.01 0.01 0.01 0.01 0.02 0.02 0.02 0.01 0.01 0.01 0.01 0.01 0.02 0.02 0.02 0.02 0.01 0.01 0.01 0.01 0.01 0.00 0.00 0.00 0.00 0.01 0.01 0.01 0.02 0.02
0.01 0.01 0.00 0.00 0.01 0.00 0.00 0.01 0.01 0.01 0.01 0.00 0.01 0.01 0.01 0.01 0.01 0.01 0.01 0.01 0.02 0.02 0.01 0.01 0.01 0.01 0.02 0.01 0.01 0.02 0.02 0.01 0.01 0.01 0.01 0.01 0.00 0.00 0.00 0.00 0.00 0.01 0.01 0.01
0.00 0.00 0.01 0.01 0.00 0.00 0.00 0.01 0.01 0.01 0.01 0.01 0.01 0.01 0.01 0.01 0.01 0.01 0.01 0.01 0.01 0.02 0.01 0.01 0.01 0.01 0.02 0.02 0.01 0.01 0.01 0.01 0.01 0.01 0.01 0.01 0.01 0.01 0.01 0.01 0.01 0.00 0.00 0.00
0.00 0.00 0.00 0.00 0.00 0.00 0.00 0.01 0.01 0.01 0.01 0.01 0.01 0.01 0.01 0.00 0.01 0.01 0.01 0.01 0.01 0.01 0.01 0.01 0.01 0.01 0.02 0.02 0.01 0.01 0.01 0.01 0.01 0.01 0.01 0.01 0.01 0.01 0.01 0.01 0.01 0.01 0.00 0.00
0.00 0.00 0.00 0.00 0.00 0.00 0.00 0.01 0.01 0.01 0.01 0.01 0.02 0.01 0.00 0.01 0.01 0.00 0.00 0.01 0.01 0.01 0.01 0.01 0.01 0.01 0.02 0.02 0.02 0.01 0.01 0.01 0.01 0.01 0.01 0.01 0.01 0.01 0.01 0.01 0.01 0.01 0.01 0.01
MSLP
1015.50 1015.47 1015.37 1015.19 1014.93 1014.58 1014.13 1013.56 1012.86 1012.01 1011.00 1009.86 1008.60 1007.30 1006.00 1004.79 1003.72 1002.85 1002.20 1001.76 1001.49 1001.36 1001.30 1001.28 1001.26 1001.26 1001.30 1001.41 1001.66 1002.07 1002.69 1003.49 1004.45 1005.51 1006.61 1007.68 1008.68 1009.59 1010.40 1011.13 1011.84 1012.54 1013.28 1014.06
1015.68 1015.53 1015.33 1015.07 1014.80 1014.49 1014.14 1013.71 1013.16 1012.44 1011.52 1010.39 1009.07 1007.62 1006.12 1004.68 1003.38 1002.31 1001.50 1000.97 1000.68 1000.57 1000.58 1000.65 1000.72 1000.80 1000.89 1001.05 1001.32 1001.76 1002.38 1003.20 1004.17 1005.24 1006.34 1007.41 1008.40 1009.27 1010.05 1010.76 1011.43 1012.13 1012.87 1013.67
1015.90 1015.60 1015.28 1014.95 1014.66 1014.41 1014.18 1013.90 1013.51 1012.92 1012.08 1010.95 1009.55 1007.95 1006.23 1004.53 1002.97 1001.67 1000.68 1000.03 999.69 999.60 999.67 999.83 1000.01 1000.18 1000.36 1000.58 1000.90 1001.37 1002.02 1002.85 1003.83 1004.91 1006.02 1007.09 1008.06 1008.92 1009.66 1010.34 1010.99 1011.66 1012.39 1013.19
1016.21 1015.75 1015.28 1014.87 1014.56 1014.35 1014.22 1014.09 1013.85 1013.39 1012.63 1011.51 1010.04 1008.28 1006.35 1004.41 1002.60 1001.06 999.89 999.11 998.70 998.60 998.71 998.94 999.20 999.47 999.73 1000.01 1000.38 1000.88 1001.55 1002.41 1003.40 1004.50 1005.61 1006.68 1007.65 1008.50 1009.23 1009.88 1010.50 1011.15 1011.85 1012.64
1016.67 1016.00 1015.37 1014.85 1014.49 1014.30 1014.25 1014.24 1014.13 1013.79 1013.11 1012.01 1010.50 1008.63 1006.54 1004.40 1002.39 1000.66 999.31 998.40 997.91 997.78 997.89 998.14 998.45 998.76 999.06 999.38 999.77 1000.28 1000.97 1001.83 1002.84 1003.95 1005.08 1006.17 1007.15 1008.01 1008.74 1009.38 1009.98 1010.60 1011.28 1012.04
1017.26 1016.38 1015.55 1014.89 1014.45 1014.25 1014.24 1014.30 1014.30 1014.07 1013.46 1012.42 1010.91 1009.01 1006.84 1004.59 1002.44 1000.57 999.10 998.09 997.51 997.31 997.38 997.60 997.89 998.17 998.46 998.75 999.12 999.61 1000.27 1001.12 1002.13 1003.25 1004.40 1005.52 1006.54 1007.42 1008.18 1008.83 1009.43 1010.03 1010.69 1011.41
1017.96 1016.85 1015.82 1014.99 1014.44 1014.18 1014.16 1014.26 1014.33 1014.18 1013.66 1012.70 1011.26 1009.40 1007.25 1004.98 1002.81 1000.89 999.36 998.27 997.61 997.32 997.30 997.43 997.62 997.82 998.00 998.21 998.49 998.90 999.50 1000.31 1001.29 1002.41 1003.58 1004.74 1005.80 1006.74 1007.54 1008.23 1008.85 1009.46 1010.10 1010.80
1018.67 1017.36 1016.14 1015.14 1014.46 1014.10 1014.03 1014.12 1014.21 1014.12 1013.70 1012.84 1011.52 1009.78 1007.74 1005.58 1003.48 1001.61 1000.08 998.96 998.24 997.85 997.71 997.70 997.73 997.76 997.78 997.83 997.96 998.24 998.74 999.46 1000.39 1001.48 1002.66 1003.84 1004.96 1005.96 1006.82 1007.57 1008.24 1008.87 1009.52 1010.22
1019.32 1017.85 1016.47 1015.33 1014.51 1014.04 1013.88 1013.92 1014.00 1013.94 1013.60 1012.86 1011.70 1010.14 1008.30 1006.33 1004.39 1002.65 1001.20 1000.09 999.33 998.84 998.56 998.37 998.20 998.02 997.83 997.67 997.61 997.72 998.06 998.66 999.50 1000.53 1001.69 1002.89 1004.05 1005.11 1006.05 1006.87 1007.60 1008.28 1008.96 1009.67
1019.81 1018.26 1016.79 1015.55 1014.62 1014.05 1013.79 1013.75 1013.78 1013.72 1013.43 1012.81 1011.82 1010.48 1008.89 1007.16 1005.45 1003.89 1002.56 1001.51 1000.73 1000.17 999.74 999.36 998.98 998.58 998.15 997.77 997.49 997.40 997.57 998.01 998.73 999.67 1000.78 1001.96 1003.13 1004.24 1005.24 1006.14 1006.94 1007.68 1008.40 1009.14
1020.08 1018.55 1017.08 1015.81 1014.83 1014.17 1013.82 1013.68 1013.64 1013.56 1013.29 1012.77 1011.94 1010.81 1009.47 1008.01 1006.55 1005.19 1004.02 1003.05 1002.27 1001.64 1001.09 1000.55 999.98 999.36 998.73 998.13 997.65 997.36 997.33 997.61 998.17 998.99 1000.00 1001.12 1002.27 1003.39 1004.44 1005.39 1006.25 1007.06 1007.83 1008.60
1020.14 1018.73 1017.35 1016.13 1015.15 1014.46 1014.03 1013.80 1013.68 1013.54 1013.27 1012.80 1012.09 1011.15 1010.03 1008.81 1007.59 1006.43 1005.40 1004.52 1003.77 1003.10 1002.46 1001.79 1001.07 1000.29 999.48 998.71 998.06 997.59 997.39 997.48 997.88 998.54 999.42 1000.43 1001.52 1002.61 1003.66 1004.64 1005.56 1006.42 1007.24 1008.04
1020.04 1018.82 1017.61 1016.52 1015.61 1014.92 1014.45 1014.14 1013.93 1013.72 1013.42 1012.97 1012.33 1011.52 1010.58 1009.55 1008.51 1007.52 1006.62 1005.81 1005.08 1004.39 1003.69 1002.94 1002.13 1001.24 1000.33 999.45 998.67 998.06 997.71 997.63 997.84 998.33 999.04 999.91 1000.89 1001.91 1002.92 1003.91 1004.85 1005.74 1006.61 1007.44
1019.86 1018.88 1017.89 1016.97 1016.17 1015.53 1015.05 1014.69 1014.39 1014.10 1013.74 1013.27 1012.67 1011.93 1011.09 1010.19 1009.28 1008.41 1007.59 1006.83 1006.12 1005.42 1004.70 1003.91 1003.06 1002.14 1001.18 1000.25 999.39 998.69 998.21 997.98 998.01 998.31 998.83 999.53 1000.37 1001.28 1002.23 1003.19 1004.13 1005.05 1005.94 1006.81
1019.68 1018.96 1018.20 1017.47 1016.80 1016.23 1015.75 1015.35 1014.98 1014.61 1014.19 1013.68 1013.07 1012.36 1011.57 1010.74 1009.90 1009.08 1008.30 1007.57 1006.86 1006.16 1005.43 1004.64 1003.79 1002.88 1001.93 1000.99 1000.12 999.36 998.78 998.41 998.28 998.39 998.72 999.24 999.91 1000.70 1001.57 1002.48 1003.41 1004.34 1005.26 1006.15
1019.59 1019.09 1018.54 1017.98 1017.43 1016.92 1016.46 1016.02 1015.60 1015.16 1014.66 1014.10 1013.46 1012.75 1011.97 1011.16 1010.35 1009.54 1008.78 1008.04 1007.32 1006.61 1005.88 1005.11 1004.29 1003.42 1002.51 1001.60 1000.73 999.94 999.29 998.81 998.53 998.46 998.61 998.95 999.47 1000.14 1000.92 1001.78 1002.70 1003.64 1004.58 1005.49
1019.62 1019.29 1018.88 1018.44 1017.97 1017.50 1017.04 1016.58 1016.10 1015.60 1015.06 1014.45 1013.78 1013.05 1012.27 1011.45 1010.63 1009.82 1009.03 1008.27 1007.53 1006.81 1006.08 1005.33 1004.54 1003.71 1002.85 1001.98 1001.13 1000.33 999.62 999.05 998.64 998.43 998.41 998.60 998.98 999.55 1000.26 1001.08 1001.99 1002.94 1003.91 1004.86
1019.77 1019.51 1019.17 1018.77 1018.33 1017.87 1017.38 1016.89 1016.37 1015.83 1015.25 1014.62 1013.93 1013.19 1012.40 1011.58 1010.75 1009.91 1009.10 1008.31 1007.55 1006.81 1006.07 1005.33 1004.57 1003.78 1002.95 1002.11 1001.27 1000.45 999.70 999.05 998.54 998.21 998.07 998.15 998.43 998.92 999.59 1000.40 1001.31 1002.29 1003.28 1004.26
1019.96 1019.70 1019.34 1018.92 1018.45 1017.94 1017.42 1016.88 1016.33 1015.76 1015.17 1014.53 1013.85 1013.12 1012.35 1011.54 1010.70 1009.86 1009.03 1008.22 1007.43 1006.67 1005.92 1005.18 1004.42 1003.64 1002.83 1002.00 1001.15 1000.31 999.52 998.81 998.23 997.81 997.59 997.59 997.82 998.27 998.93 999.74 1000.67 1001.68 1002.71 1003.73
1020.09 1019.75 1019.33 1018.83 1018.28 1017.71 1017.13 1016.55 1015.97 1015.39 1014.80 1014.19 1013.54 1012.84 1012.10 1011.32 1010.51 1009.68 1008.85 1008.03 1007.23 1006.46 1005.69 1004.94 1004.17 1003.38 1002.56 1001.71 1000.83 999.96 999.13 998.37 997.74 997.27 997.01 996.98 997.19 997.64 998.31 999.15 1000.11 1001.16 1002.22 1003.27
1020.03 1019.60 1019.06 1018.47 1017.83 1017.18 1016.55 1015.93 1015.34 1014.77 1014.20 1013.62 1013.01 1012.37 1011.69 1010.96 1010.19 1009.40 1008.60 1007.80 1007.01 1006.23 1005.45 1004.67 1003.88 1003.06 1002.21 1001.32 1000.40 999.49 998.62 997.83 997.17 996.68 996.41 996.38 996.61 997.09 997.78 998.66 999.66 1000.73 1001.83 1002.91
1019.69 1019.15 1018.53 1017.84 1017.13 1016.42 1015.75 1015.11 1014.52 1013.97 1013.43 1012.90 1012.35 1011.78 1011.16 1010.50 1009.81 1009.08 1008.33 1007.56 1006.79 1006.02 1005.24 1004.44 1003.62 1002.75 1001.85 1000.91 999.94 998.99 998.08 997.27 996.60 996.12 995.87 995.88 996.14 996.66 997.40 998.31 999.34 1000.44 1001.55 1002.64
1019.01 1018.40 1017.71 1016.97 1016.22 1015.50 1014.82 1014.20 1013.63 1013.11 1012.62 1012.14 1011.65 1011.14 1010.60 1010.02 1009.39 1008.74 1008.05 1007.35 1006.62 1005.87 1005.09 1004.28 1003.41 1002.50 1001.54 1000.54 999.52 998.53 997.59 996.77 996.12 995.67 995.46 995.52 995.84 996.41 997.19 998.14 999.19 1000.29 1001.41 1002.49
1017.98 1017.34 1016.65 1015.92 1015.19 1014.50 1013.87 1013.29 1012.77 1012.30 1011.86 1011.43 1010.99 1010.54 1010.07 1009.56 1009.01 1008.43 1007.82 1007.18 1006.50 1005.78 1005.01 1004.18 1003.28 1002.32 1001.30 1000.24 999.17 998.14 997.19 996.38 995.75 995.36 995.22 995.34 995.73 996.36 997.18 998.15 999.21 1000.31 1001.41 1002.48
1016.65 1016.05 1015.41 1014.75 1014.12 1013.52 1012.97 1012.48 1012.03 1011.61 1011.22 1010.84 1010.45 1010.05 1009.63 1009.18 1008.70 1008.19 1007.65 1007.07 1006.44 1005.75 1004.98 1004.13 1003.19 1002.18 1001.10 999.99 998.88 997.82 996.87 996.09 995.51 995.18 995.12 995.33 995.80 996.49 997.35 998.34 999.41 1000.50 1001.58 1002.63
1015.13 1014.62 1014.09 1013.57 1013.07 1012.61 1012.19 1011.80 1011.44 1011.10 1010.76 1010.42 1010.07 1009.70 1009.32 1008.92 1008.49 1008.05 1007.56 1007.03 1006.43 1005.76 1004.98 1004.11 1003.13 1002.05 1000.91 999.75 998.60 997.53 996.60 995.86 995.35 995.11 995.15 995.46 996.01 996.77 997.69 998.71 999.79 1000.87 1001.94 1002.97
Thickness
5435 5425 5422 5426 5429 5433 5435 5437 5443 5459 5472 5473 5483 5497 5514 5529 5538 5551 5562 5574 5587 5604 5620 5628 5638 5647 5652 5657 5660 5664 5666 5668 5668 5669 5669 5668 5668 5668 5668 5668 5667 5667 5666 5664
5419 5417 5425 5427 5428 5428 5427 5427 5435 5451 5464 5468 5475 5490 5508 5521 5534 5546 5557 5568 5581 5595 5609 5620 5630 5639 5646 5652 5656 5660 5662 5665 5666 5668 5668 5667 5665 5664 5664 5663 5662 5663 5662 5661
5412 5420 5427 5426 5423 5421 5425 5425 5430 5438 5451 5461 5464 5478 5501 5520 5532 5543 5553 5564 5575 5587 5601 5613 5622 5632 5640 5647 5653 5658 5660 5662 5664 5664 5662 5659 5657 5656 5657 5659 5660 5659 5659 5658
5411 5417 5419 5418 5417 5417 5421 5434 5436 5438 5437 5443 5456 5460 5492 5512 5526 5537 5547 5557 5569 5582 5594 5607 5617 5626 5635 5644 5650 5654 5657 5659 5660 5660 5659 5659 5660 5661 5663 5662 5659 5657 5656 5655
5403 5411 5411 5412 5417 5418 5419 5429 5430 5433 5431 5433 5447 5447 5480 5502 5516 5532 5545 5554 5565 5577 5588 5600 5612 5622 5632 5639 5645 5650 5653 5655 5657 5657 5658 5658 5659 5660 5658 5656 5655 5653 5652 5652
5402 5408 5408 5410 5416 5416 5418 5421 5425 5427 5426 5426 5446 5445 5466 5491 5512 5528 5542 5551 5561 5572 5583 5595 5606 5615 5623 5631 5638 5643 5647 5651 5654 5655 5656 5657 5657 5657 5655 5654 5653 5651 5650 5649
5391 5400 5404 5406 5405 5414 5411 5408 5407 5408 5410 5422 5449 5451 5468 5492 5507 5519 5531 5543 5553 5564 5574 5585 5596 5606 5615 5623 5631 5637 5642 5646 5650 5652 5654 5656 5657 5656 5656 5655 5653 5651 5649 5648
5364 5377 5394 5399 5397 5398 5401 5402 5400 5406 5417 5431 5448 5455 5469 5487 5500 5510 5520 5529 5540 5552 5564 5575 5587 5599 5609 5618 5626 5632 5638 5643 5647 5649 5652 5654 5654 5654 5654 5654 5654 5652 5652 5650
5358 5369 5392 5397 5397 5396 5395 5400 5405 5406 5410 5421 5442 5453 5468 5482 5489 5498 5505 5515 5525 5538 5551 5564 5576 5588 5600 5611 5621 5628 5634 5639 5644 5648 5650 5651 5651 5652 5653 5653 5652 5652 5650 5647
5357 5359 5378 5387 5394 5395 5391 5392 5395 5398 5402 5418 5435 5446 5455 5465 5473 5484 5492 5500 5512 5525 5537 5550 5564 5577 5591 5604 5615 5624 5630 5635 5641 5645 5647 5649 5650 5651 5651 5649 5649 5650 5648 5645
5354 5350 5363 5371 5373 5375 5380 5384 5386 5389 5399 5409 5428 5441 5449 5454 5463 5471 5480 5490 5501 5512 5523 5536 5551 5566 5581 5594 5605 5615 5624 5630 5635 5640 5643 5645 5647 5648 5647 5646 5647 5647 5645 5643
5353 5344 5345 5357 5371 5375 5373 5372 5373 5375 5382 5392 5405 5424 5442 5447 5453 5460 5468 5479 5491 5501 5513 5526 5539 5553 5567 5580 5594 5606 5615 5624 5632 5637 5640 5642 5643 5643 5643 5643 5644 5643 5641 5640
5352 5341 5334 5348 5359 5361 5360 5364 5366 5367 5372 5383 5396 5419 5438 5440 5445 5451 5459 5468 5479 5491 5503 5516 5528 5540 5554 5568 5582 5595 5607 5617 5625 5631 5635 5637 5638 5639 5640 5641 5640 5639 5638 5637
5361 5339 5332 5334 5343 5345 5348 5357 5362 5361 5363 5372 5388 5406 5421 5427 5434 5441 5449 5458 5468 5480 5492 5505 5517 5528 5542 5556 5570 5584 5597 5608 5617 5624 5629 5632 5635 5637 5638 5638 5637 5636 5635 5633
5348 5338 5335 5341 5350 5351 5353 5359 5362 5362 5367 5370 5385 5395 5409 5415 5422 5430 5437 5448 5460 5470 5482 5493 5505 5517 5530 5545 5560 5574 5587 5599 5608 5615 5621 5627 5631 5633 5633 5632 5632 5632 5631 5630
5337 5333 5334 5340 5353 5353 5358 5365 5366 5368 5369 5371 5379 5390 5401 5407 5415 5421 5427 5437 5448 5458 5470 5482 5494 5506 5520 5534 5549 5563 5576 5589 5598 5607 5614 5620 5622 5625 5627 5627 5627 5627 5626 5626
5329 5324 5326 5333 5344 5348 5351 5361 5363 5364 5365 5366 5372 5382 5391 5398 5407 5413 5419 5428 5438 5449 5460 5471 5483 5496 5509 5523 5538 5551 5565 5577 5587 5597 5604 5610 5614 5617 5620 5622 5621 5622 5622 5622
5326 5320 5321 5326 5327 5325 5352 5361 5361 5359 5362 5363 5368 5375 5383 5392 5402 5409 5413 5420 5429 5440 5451 5462 5475 5488 5502 5515 5529 5542 5555 5566 5576 5585 5593 5600 5606 5609 5612 5614 5616 5617 5617 5617
5328 5323 5316 5315 5315 5328 5350 5358 5355 5352 5357 5361 5363 5371 5378 5387 5397 5405 5412 5417 5424 5432 5444 5455 5467 5480 5493 5506 5520 5532 5545 5555 5564 5573 5582 5590 5597 5600 5603 5606 5609 5611 5612 5612
5325 5319 5313 5308 5312 5327 5347 5357 5357 5352 5350 5359 5361 5365 5369 5376 5381 5396 5406 5411 5419 5428 5438 5450 5461 5473 5485 5498 5510 5523 5534 5544 5554 5563 5572 5580 5586 5591 5596 5600 5602 5604 5606 5606
5312 5306 5305 5302 5305 5325 5346 5350 5350 5338 5343 5356 5358 5359 5362 5366 5373 5386 5395 5403 5413 5422 5433 5443 5454 5465 5476 5489 5501 5513 5524 5534 5543 5552 5561 5569 5576 5582 5587 5591 5593 5596 5598 5598
5310 5298 5294 5295 5298 5320 5346 5343 5338 5339 5347 5350 5353 5355 5358 5363 5371 5378 5386 5395 5405 5415 5426 5436 5447 5458 5469 5480 5492 5503 5513 5524 5533 5542 5550 5558 5565 5571 5577 5581 5584 5586 5588 5589
5311 5309 5304 5305 5322 5334 5337 5338 5340 5340 5340 5343 5346 5350 5353 5358 5364 5372 5379 5388 5398 5407 5417 5428 5438 5449 5460 5470 5481 5491 5502 5513 5522 5530 5538 5546 5553 5560 5566 5571 5574 5576 5579 5581
5311 5311 5305 5306 5320 5326 5329 5331 5333 5335 5335 5339 5341 5344 5347 5351 5358 5364 5372 5381 5390 5399 5408 5418 5428 5440 5451 5460 5470 5481 5492 5502 5511 5519 5526 5534 5541 5548 5554 5560 5564 5568 5571 5573
5312 5306 5302 5305 5315 5318 5326 5328 5330 5331 5331 5333 5336 5339 5342 5346 5351 5357 5365 5372 5380 5390 5400 5409 5418 5430 5440 5450 5461 5471 5482 5491 5499 5507 5514 5521 5529 5536 5542 5547 5553 5558 5563 5568
5309 5306 5303 5312 5317 5314 5320 5324 5325 5325 5326 5328 5330 5334 5337 5340 5345 5351 5357 5364 5372 5381 5390 5399 5409 5420 5431 5441 5452 5462 5471 5481 5489 5496 5503 5510 5517 5523 5529 5535 5539 5544 5551 5555